EW1713 Weather Reports


Display with metric or nautical units.
time (UTC)temp
F
wind
direction
speed
MPH
gust
MPH
rain 1hr
in
rain 24hr
in
rain mn
in
humidity
%
barometer
mb
20260506014541 66 11 2.0 4.0 0.00 0.32 0.01 39 1013.2
20260506013042 66 11 1.0 7.0 0.00 0.32 0.01 40 1013.2
20260506011545 66 0 0.0 4.0 0.00 0.32 0.01 39 1013.3
20260506010055 66 0 1.0 7.0 0.00 0.32 0.01 38 1013.2
20260506004541 66 12 2.0 5.0 0.00 0.36 0.01 39 1013.2
20260506003041 66 11 1.0 10.0 0.00 0.36 0.01 39 1013.0
20260506001550 66 11 6.0 11.0 0.00 0.36 0.01 40 1012.9
20260506000043 65 11 4.0 10.0 0.00 0.36 0.01 41 1013.0
20260505234543 65 11 8.0 12.0 0.00 0.36 0.01 41 1013.1
20260505233047 65 11 3.0 10.0 0.00 0.36 0.01 42 1013.1
20260505231540 64 11 1.0 8.0 0.00 0.36 0.01 46 1013.2
20260505230041 63 12 5.0 9.0 0.00 0.36 0.01 47 1013.3
20260505224545 62 11 3.0 9.0 0.00 0.36 0.01 47 1013.3
20260505223045 63 11 7.0 11.0 0.00 0.36 0.01 46 1013.5
20260505221542 64 11 3.0 10.0 0.00 0.36 0.01 45 1013.6
20260505220048 65 11 5.0 14.0 0.00 0.36 0.01 46 1013.9
20260505214544 65 11 6.0 14.0 0.00 0.36 0.01 44 1013.8
20260505213043 64 11 1.0 11.0 0.00 0.36 0.01 47 1014.0
20260505211547 62 11 7.0 12.0 0.00 0.36 0.01 50 1014.0
20260505210047 61 11 4.0 10.0 0.00 0.36 0.01 51 1014.2
20260505204544 61 15 2.0 8.0 0.00 0.39 0.01 53 1014.3
20260505203044 62 11 10.0 13.0 0.00 0.39 0.01 53 1014.3
20260505201552 61 11 6.0 15.0 0.00 0.39 0.01 55 1014.5
20260505200042 60 10 4.0 12.0 0.00 0.39 0.01 60 1014.7
20260505194543 59 10 4.0 12.0 0.00 0.39 0.01 63 1014.9
20260505193041 57 0 1.0 8.0 0.00 0.39 0.01 62 1014.9
20260505191548 57 10 6.0 9.0 0.00 0.39 0.01 65 1014.7
20260505190050 54 11 3.0 10.0 0.00 0.39 0.01 67 1014.9
20260505184545 55 10 3.0 8.0 0.00 0.39 0.01 67 1014.9
20260505183107 54 10 0.0 9.0 0.00 0.39 0.01 71 1014.8
20260505181541 52 0 1.0 9.0 0.00 0.39 0.01 69 1014.8
20260505180045 53 9 3.0 10.0 0.00 0.39 0.01 70 1014.5
20260505174543 53 9 5.0 9.0 0.00 0.39 0.01 70 1014.5
20260505173051 51 9 4.0 9.0 0.00 0.39 0.01 76 1014.3
20260505171546 50 9 1.0 7.0 0.00 0.39 0.01 80 1014.3
20260505170040 49 9 3.0 7.0 0.00 0.39 0.01 81 1014.2
20260505164542 48 11 3.0 8.0 0.00 0.41 0.01 82 1014.1
20260505163045 46 9 7.0 10.0 0.00 0.41 0.01 83 1013.9
20260505161551 46 9 4.0 11.0 0.00 0.41 0.01 84 1013.6
20260505153038 44 9 7.0 10.0 0.00 0.41 0.01 85 1013.3
20260505151544 44 9 6.0 10.0 0.00 0.41 0.01 86 1013.2
20260505124556 42 13 8.0 13.0 0.00 0.41 0.01 86 1011.8
20260505123055 42 13 7.0 13.0 0.00 0.41 0.01 85 1011.6
20260505121542 42 13 11.0 15.0 0.00 0.41 0.01 85 1011.8
20260505120101 42 13 10.0 16.0 0.00 0.41 0.01 84 1011.8
20260505114545 42 13 10.0 16.0 0.00 0.41 0.01 84 1011.7
20260505113047 42 13 12.0 19.0 0.00 0.41 0.01 84 1011.6
20260505111544 42 13 13.0 17.0 0.00 0.41 0.01 84 1011.6
20260505101542 42 13 15.0 20.0 0.00 0.41 0.01 84 1011.9
20260505100045 42 13 13.0 18.0 0.00 0.41 0.01 84 1011.9
20260505094542 42 13 12.0 20.0 0.00 0.41 0.01 84 1011.9
20260505093043 42 13 17.0 24.0 0.00 0.41 0.01 84 1011.9
20260505091540 41 13 16.0 21.0 0.00 0.41 0.01 86 1011.9
20260505090044 42 13 17.0 24.0 0.00 0.41 0.01 85 1012.1
20260505084545 42 13 14.0 19.0 0.00 0.41 0.01 84 1012.2
20260505083048 43 13 14.0 20.0 0.01 0.41 0.01 84 1012.5
20260505081541 42 13 17.0 22.0 0.01 0.41 0.01 84 1012.7
20260505080042 42 13 14.0 20.0 0.01 0.41 0.01 86 1012.9
20260505074541 41 13 14.0 19.0 0.01 0.41 0.01 86 1012.5
20260505073054 41 13 8.0 12.0 0.00 0.40 0.00 90 1013.2
20260505071552 41 13 7.0 18.0 0.00 0.40 0.00 84 1013.1
20260505070046 41 13 12.0 17.0 0.00 0.40 0.00 84 1012.5
20260505064544 42 360 12.0 30.0 0.00 0.40 0.40 83 1012.6
20260505063041 42 13 16.0 24.0 0.00 0.40 0.40 82 1011.8
20260505061552 42 13 14.0 25.0 0.00 0.40 0.40 83 1011.9
20260505060045 41 13 18.0 25.0 0.00 0.40 0.40 84 1011.8
20260505054605 41 13 15.0 24.0 0.00 0.40 0.40 85 1012.0
20260505053057 41 13 17.0 24.0 0.00 0.40 0.40 86 1012.6
20260505051541 41 13 18.0 27.0 0.00 0.40 0.40 85 1012.8
20260505041541 41 13 17.0 24.0 0.06 0.40 0.40 89 1012.5
20260505040042 41 13 11.0 16.0 0.06 0.39 0.39 88 1012.9
20260505034539 41 13 12.0 20.0 0.06 0.38 0.38 88 1012.7
20260505033047 41 13 16.0 25.0 0.05 0.37 0.37 86 1012.4
20260505031557 41 13 19.0 28.0 0.02 0.34 0.34 85 1012.2
20260505030042 41 13 13.0 21.0 0.03 0.33 0.33 85 1012.4
20260505024542 42 13 13.0 24.0 0.06 0.32 0.32 84 1013.1
20260505023049 41 13 16.0 23.0 0.13 0.32 0.32 86 1012.7
20260505021545 42 13 21.0 28.0 0.19 0.32 0.32 86 1012.1
20260505020045 42 13 20.0 32.0 0.21 0.30 0.30 87 1012.2